Location: Aultman
(40.9284°N, 81.4173°W)
Time: 08:44:38
(UTC+00:00)

BREEZE-M DEB (TANK) - Pass Details

Date: 24 January 2021
Orbit: 327 x 16272 km, 49.5° (Epoch: 03 March)

Event Time Altitude Azimuth Distance (km) Brightness Sun altitude
Exits shadow 11:59:57 - 299° (WNW) 3,934 6.0 -8.4°
Reaches altitude 10° 12:00:33 10° 298° (WNW) 3,652 5.8 -8.2°
Maximum altitude 12:07:01 37° 233° (SW) 983 3.3 -7.1°
Drops below altitude 10° 12:09:42 10° 162° (SSE) 1,495 5.1 -6.6°
Sets 12:11:10 0° 151° (SSE) 2,161 6.2 -6.4°
